North Bennington, VT

10:45 AM EST on January 22, 2017 (GMT -0500)
Morse State

Weather History for KDDH - May, 2014

Change the Weather History Date:

Sunday, May 4, 2014

  Actual Average Record
Temperature  
Mean Temperature 49 °F 52 °F  
Max Temperature 54 °F 64 °F 84 °F (2001)
Min Temperature 44 °F 40 °F 28 °F (2003)
Degree Days  
Heating Degree Days 16 13  
Month to date heating degree days 46 55  
Since 1 July heating degree days 7039 6878  
Cooling Degree Days 0 0  
Month to date cooling degree days 0 0  
Year to date cooling degree days 4 3  
Moisture  
Dew Point 39 °F    
Average Humidity 72    
Maximum Humidity 83    
Minimum Humidity 61    
Precipitation  
Precipitation 0.30 in 0.11 in 0.93 in (2011)
Month to date precipitation 0.40 0.40  
Year to date precipitation 10.87 11.81  
Sea Level Pressure  
Sea Level Pressure 29.66 in    
Wind  
Wind Speed 8 mph (WSW)    
Max Wind Speed 22 mph    
Max Gust Speed 30 mph    
Visibility 9 miles    
Events Rain    
T = Trace of Precipitation, MM = Missing Value Source: NWS Daily Summary

Daily Weather History Graph

Daily Weather History Graph

Search for Another Location

Airport or City:

Trip Planner

Search our weather history database for the weather conditions in past years. The results will help you decide how hot, cold, wet, or windy it might be!

Date:

Astronomy

May. 04, 2014 Rise Set
Actual Time 5:43 AM EDT 7:57 PM EDT
Civil Twilight 5:11 AM EDT 8:28 PM EDT
Nautical Twilight 4:33 AM EDT 9:07 PM EDT
Astronomical Twilight 3:50 AM EDT 9:50 PM EDT
Moon 10:04 AM EDT (5/4) 12:01 AM EDT (5/4)
Length of Visible Light 15h 16m
Length of Day
14h 14m
Waxing Crescent, 27% of the Moon is Illuminated
May 4
Waxing Crescent
May 6
First Quarter
May 14
Full
May 21
Last Quarter
May 28
New

Hourly Weather History & Observations

Time (EDT) Temp. Windchill Dew Point Humidity Pressure Visibility Wind Dir Wind Speed Gust Speed Precip Events Conditions
12:54 AM 54.0 °F - 41.0 °F 62% 29.66 in 10.0 mi SSW 12.7 mph 18.4 mph N/A   Overcast
1:33 AM 48.9 °F - 44.1 °F 83% 29.69 in 9.0 mi SW 10.4 mph - 0.05 in Rain Light Rain
1:46 AM 48.9 °F - 44.1 °F 83% 29.69 in 10.0 mi SSW 5.8 mph - 0.05 in Rain Light Rain
1:54 AM 48.9 °F - 44.1 °F 83% 29.69 in 10.0 mi SW 5.8 mph - 0.05 in Rain Light Rain
2:54 AM 48.0 °F - 44.1 °F 86% 29.67 in 10.0 mi SW 4.6 mph - 0.01 in   Overcast
3:54 AM 48.0 °F - 43.0 °F 83% 29.66 in 10.0 mi SW 4.6 mph - N/A   Mostly Cloudy
4:54 AM 48.0 °F - 41.0 °F 77% 29.66 in 10.0 mi WSW 4.6 mph - N/A   Overcast
5:54 AM 48.0 °F - 39.0 °F 71% 29.66 in 10.0 mi WSW 4.6 mph - N/A   Overcast
6:54 AM 46.9 °F - 37.0 °F 68% 29.66 in 10.0 mi SW 6.9 mph - N/A   Mostly Cloudy
7:54 AM 48.0 °F - 36.0 °F 63% 29.65 in 10.0 mi Variable 5.8 mph - N/A   Overcast
8:54 AM 48.0 °F - 35.1 °F 61% 29.63 in 10.0 mi SW 9.2 mph - N/A   Overcast
9:54 AM 46.0 °F 43.1 °F 37.0 °F 71% 29.63 in 10.0 mi Variable 5.8 mph - 0.01 in   Overcast
10:45 AM 45.0 °F 42.6 °F 37.9 °F 76% 29.63 in 4.0 mi Variable 4.6 mph 21.9 mph 0.02 in Rain Light Rain
10:52 AM 44.6 °F 40.2 °F 37.4 °F 76% 29.63 in 7.0 mi West 8.1 mph - 0.02 in Rain Light Rain
10:54 AM 45.0 °F 40.1 °F 37.9 °F 76% 29.64 in 9.0 mi WSW 9.2 mph - 0.02 in Rain Light Rain
11:54 AM 46.0 °F - 39.9 °F 79% 29.62 in 10.0 mi North - - 0.00 in   Overcast
12:54 PM 46.9 °F - 37.9 °F 71% 29.62 in 10.0 mi West 9.2 mph - N/A   Overcast
1:47 PM 46.0 °F 41.9 °F 39.0 °F 76% 29.62 in 8.0 mi WNW 8.1 mph 19.6 mph 0.02 in Rain Light Rain
1:54 PM 46.0 °F 41.4 °F 39.0 °F 76% 29.63 in 10.0 mi WNW 9.2 mph 17.3 mph 0.03 in Rain Light Rain
2:54 PM 46.9 °F - 39.0 °F 74% 29.64 in 10.0 mi West 9.2 mph 20.7 mph 0.01 in Rain Light Rain
3:32 PM 46.9 °F - 37.0 °F 68% 29.64 in 10.0 mi West 13.8 mph 25.3 mph 0.02 in Rain Light Rain
3:54 PM 46.0 °F 39.6 °F 37.0 °F 71% 29.65 in 8.0 mi West 15.0 mph 27.6 mph 0.03 in Rain Light Rain
4:54 PM 46.9 °F - 36.0 °F 66% 29.65 in 10.0 mi West 15.0 mph 23.0 mph 0.01 in   Overcast
5:54 PM 46.9 °F - 36.0 °F 66% 29.64 in 10.0 mi WSW 15.0 mph 23.0 mph 0.00 in Rain Light Rain
6:54 PM 46.0 °F 41.4 °F 37.9 °F 73% 29.65 in 7.0 mi West 9.2 mph 18.4 mph 0.01 in Rain Light Rain
7:12 PM 46.0 °F 41.9 °F 37.9 °F 73% 29.65 in 6.0 mi WSW 8.1 mph - 0.01 in Rain Light Rain
7:54 PM 45.0 °F 41.2 °F 39.0 °F 80% 29.67 in 10.0 mi West 6.9 mph 16.1 mph 0.04 in Rain Light Rain
8:54 PM 45.0 °F 39.7 °F 39.0 °F 80% 29.69 in 10.0 mi West 10.4 mph 23.0 mph 0.01 in Rain Light Rain
9:54 PM 44.1 °F 42.5 °F 39.9 °F 85% 29.72 in 6.0 mi Variable 3.5 mph - 0.05 in Rain Light Rain
10:54 PM 44.1 °F 40.8 °F 39.9 °F 85% 29.73 in 10.0 mi SW 5.8 mph - 0.01 in   Overcast
11:54 PM 44.1 °F 41.5 °F 39.0 °F 82% 29.74 in 10.0 mi SW 4.6 mph - N/A   Overcast